STARLINK-36802

Last updated on Fri Mar 27 2026 00:02:06 GMT+0000 (Coordinated Universal Time)

1 67985U 26038AA 26085.47561986 .00272582 00000+0 17702-2 0 9995 2 67985 97.2879 96.6716 0001152 65.1013 295.0371 15.75196460 5836
UTC large
Height (km)
Speed (km/s)
/
Latitude / Longitude
Inclination (degrees)
Orbital Period (minutes)
Azimuth
Elevation
Range (km)
Doppler Factor

Next 0 passes for location: London (51.5072 / 0.1276)

Sorry there are no passes over London.